N1PR KPHX-KDAB

Flight info

Callsign N1PR
Flight time N/A
Altitude 37000
Route BROAK1 MAXXO CNX LBB EIC SZW GNV
Aircraft B738/M-SDE2E3FGHIRWXY/LB1

Departure

Time 2026-05-05 21:51
Airport Phoenix Sky Harbor International Airport (KPHX)

Arrival

Time N/A
Airport Daytona Beach International Airport (KDAB)
Time Latitude Longitude Altitude Speed Heading
2026-05-05 21:43 33.42296 -112.01673 1122 ft 0 kts 143°
2026-05-05 21:45 33.42294 -112.01672 1122 ft 1 kts 161°
2026-05-05 21:45 33.42298 -112.01700 1122 ft 9 kts 316°
2026-05-05 21:46 33.42388 -112.01743 1122 ft 17 kts 354°
2026-05-05 21:46 33.42532 -112.01742 1122 ft 21 kts
2026-05-05 21:46 33.42680 -112.01741 1122 ft 19 kts 360°
2026-05-05 21:46 33.42775 -112.01666 1124 ft 16 kts 89°
2026-05-05 21:47 33.42771 -112.01530 1124 ft 15 kts 90°
2026-05-05 21:47 33.42775 -112.01400 1124 ft 16 kts 88°
2026-05-05 21:47 33.42778 -112.01255 1124 ft 16 kts 88°
2026-05-05 21:47 33.42775 -112.01102 1125 ft 20 kts 92°
2026-05-05 21:48 33.42773 -112.00904 1125 ft 26 kts 91°
2026-05-05 21:48 33.42775 -112.00681 1125 ft 23 kts 90°
2026-05-05 21:48 33.42800 -112.00539 1125 ft 15 kts 34°
2026-05-05 21:48 33.42910 -112.00513 1126 ft 15 kts 23°
2026-05-05 21:49 33.42978 -112.00427 1127 ft 14 kts 63°
2026-05-05 21:49 33.42993 -112.00297 1127 ft 17 kts 92°
2026-05-05 21:49 33.42993 -112.00139 1127 ft 20 kts 88°
2026-05-05 21:49 33.43001 -111.99957 1127 ft 23 kts 88°
2026-05-05 21:50 33.42996 -111.99744 1128 ft 26 kts 94°
2026-05-05 21:50 33.42991 -111.99512 1131 ft 22 kts 90°
2026-05-05 21:50 33.43013 -111.99355 1131 ft 18 kts 33°
2026-05-05 21:50 33.43097 -111.99356 1130 ft 7 kts 315°
2026-05-05 21:51 33.43103 -111.99380 1130 ft 1 kts 271°
2026-05-05 21:51 33.43101 -111.99632 1128 ft 70 kts 269°
2026-05-05 21:51 33.43106 -112.00567 1130 ft 148 kts 270°
2026-05-05 21:51 33.43097 -112.01893 1771 ft 160 kts 266°
2026-05-05 21:52 33.43093 -112.04984 3050 ft 203 kts 268°
2026-05-05 21:52 33.42858 -112.06561 4166 ft 198 kts 246°
2026-05-05 21:52 33.42287 -112.08122 4921 ft 214 kts 249°
2026-05-05 21:53 33.41790 -112.09742 6069 ft 209 kts 251°
2026-05-05 21:53 33.41303 -112.11457 6593 ft 236 kts 251°
2026-05-05 21:53 33.40766 -112.13413 7285 ft 256 kts 251°
2026-05-05 21:53 33.40257 -112.15292 8901 ft 235 kts 251°
2026-05-05 21:54 33.39626 -112.17065 9682 ft 247 kts 232°
2026-05-05 21:54 33.38247 -112.18356 10476 ft 260 kts 200°
2026-05-05 21:54 33.36544 -112.18559 11935 ft 249 kts 174°
2026-05-05 21:54 33.34799 -112.17870 12149 ft 292 kts 156°
2026-05-05 21:55 33.32859 -112.16933 12836 ft 306 kts 165°
2026-05-05 21:55 33.30916 -112.16170 14452 ft 290 kts 168°
2026-05-05 21:55 33.29014 -112.15298 15211 ft 309 kts 154°
2026-05-05 21:55 33.27374 -112.13519 15950 ft 329 kts 139°
2026-05-05 21:56 33.25825 -112.11623 17140 ft 325 kts 138°
2026-05-05 21:56 33.24593 -112.09238 17782 ft 352 kts 115°
2026-05-05 21:56 33.24152 -112.06346 18640 ft 367 kts 92°
2026-05-05 21:56 33.24591 -112.03323 19495 ft 377 kts 77°
2026-05-05 21:57 33.25125 -112.00198 19874 ft 393 kts 84°
2026-05-05 21:57 33.25537 -111.96950 20328 ft 410 kts 85°
2026-05-05 21:57 33.26049 -111.93491 20332 ft 442 kts 75°
2026-05-05 21:57 33.27356 -111.90028 20459 ft 469 kts 62°
2026-05-05 21:58 33.28894 -111.86550 21270 ft 474 kts 63°
2026-05-05 21:58 33.30416 -111.83082 22072 ft 480 kts 63°
2026-05-05 21:58 33.31974 -111.79521 22490 ft 494 kts 63°
2026-05-05 21:58 33.33553 -111.75899 23326 ft 497 kts 64°
2026-05-05 21:59 33.35189 -111.72147 23582 ft 514 kts 63°
2026-05-05 21:59 33.36834 -111.68378 24444 ft 513 kts 64°
2026-05-05 21:59 33.38478 -111.64600 24958 ft 522 kts 64°
2026-05-05 21:59 33.40161 -111.60716 25290 ft 533 kts 64°
2026-05-05 22:00 33.41890 -111.56745 25919 ft 537 kts 64°
2026-05-05 22:00 33.43383 -111.52696 26254 ft 543 kts 72°
2026-05-05 22:00 33.44730 -111.48456 26838 ft 545 kts 73°
2026-05-05 22:00 33.46064 -111.44209 27224 ft 553 kts 73°
2026-05-05 22:01 33.47438 -111.39854 27551 ft 562 kts 73°
2026-05-05 22:01 33.48819 -111.35510 27997 ft 567 kts 72°
2026-05-05 22:01 33.50210 -111.31096 28423 ft 571 kts 74°
2026-05-05 22:01 33.51622 -111.26613 28844 ft 574 kts 74°
2026-05-05 22:02 33.53021 -111.22132 29139 ft 581 kts 74°
2026-05-05 22:02 33.54321 -111.17540 29385 ft 587 kts 76°
2026-05-05 22:02 33.55621 -111.12903 29933 ft 586 kts 76°
2026-05-05 22:02 33.56911 -111.08309 30322 ft 589 kts 76°
2026-05-05 22:03 33.58215 -111.03611 30496 ft 598 kts 76°
2026-05-05 22:03 33.59517 -110.98956 31073 ft 594 kts 76°
2026-05-05 22:03 33.60833 -110.94285 31633 ft 592 kts 76°
2026-05-05 22:03 33.62121 -110.89621 32092 ft 592 kts 76°
2026-05-05 22:04 33.63428 -110.84947 32474 ft 593 kts 76°
2026-05-05 22:04 33.64719 -110.80280 32944 ft 592 kts 76°
2026-05-05 22:04 33.66022 -110.75567 33330 ft 592 kts 75°
2026-05-05 22:04 33.67309 -110.70924 33639 ft 595 kts 76°
2026-05-05 22:05 33.68615 -110.66202 34307 ft 587 kts 75°
2026-05-05 22:05 33.69888 -110.61616 35050 ft 579 kts 76°
2026-05-05 22:05 33.71136 -110.57065 35465 ft 578 kts 76°
2026-05-05 22:05 33.72392 -110.52479 35798 ft 578 kts 76°
2026-05-05 22:06 33.73656 -110.47877 36259 ft 574 kts 75°
2026-05-05 22:06 33.74890 -110.43364 36536 ft 576 kts 75°
2026-05-05 22:06 33.76161 -110.38744 36843 ft 574 kts 76°
2026-05-05 22:06 33.77418 -110.34147 37018 ft 567 kts 76°
2026-05-05 22:07 33.78648 -110.29618 37013 ft 568 kts 76°
2026-05-05 22:07 33.81168 -110.20383 37024 ft 574 kts 75°
2026-05-05 22:08 33.83681 -110.11131 37038 ft 572 kts 76°
2026-05-05 22:08 33.86142 -110.02021 37048 ft 571 kts 76°
2026-05-05 22:09 33.88617 -109.92841 37038 ft 573 kts 76°
2026-05-05 22:09 33.91077 -109.83705 37058 ft 573 kts 76°
2026-05-05 22:10 33.93519 -109.74571 37068 ft 573 kts 76°
2026-05-05 22:10 33.95967 -109.65403 37072 ft 574 kts 76°
2026-05-05 22:11 33.98411 -109.56216 37068 ft 573 kts 76°
2026-05-05 22:11 34.00844 -109.47058 37072 ft 575 kts 76°
2026-05-05 22:12 34.03283 -109.37809 37104 ft 575 kts 76°
2026-05-05 22:12 34.05708 -109.28614 37109 ft 574 kts 76°
2026-05-05 22:13 34.08122 -109.19406 37097 ft 577 kts 76°
2026-05-05 22:13 34.10535 -109.10184 37073 ft 575 kts 76°
2026-05-05 22:14 34.12941 -109.00993 37071 ft 575 kts 77°
2026-05-05 22:14 34.15344 -108.91737 37079 ft 577 kts 77°
2026-05-05 22:15 34.17723 -108.82539 37084 ft 576 kts 76°
2026-05-05 22:15 34.20111 -108.73276 37091 ft 579 kts 77°
2026-05-05 22:16 34.22505 -108.63979 37081 ft 578 kts 77°
2026-05-05 22:16 34.24891 -108.54650 37085 ft 579 kts 76°
2026-05-05 22:17 34.27272 -108.45368 37086 ft 579 kts 77°
2026-05-05 22:17 34.29646 -108.36014 37094 ft 580 kts 76°
2026-05-05 22:18 34.32016 -108.26679 37075 ft 578 kts 77°
2026-05-05 22:18 34.34376 -108.17343 37076 ft 581 kts 77°
2026-05-05 22:19 34.36716 -108.08052 37078 ft 580 kts 77°
2026-05-05 22:19 34.38477 -107.98644 37082 ft 563 kts 96°
2026-05-05 22:20 34.38581 -107.89101 37082 ft 567 kts 97°
2026-05-05 22:20 34.38688 -107.79619 37076 ft 563 kts 97°
2026-05-05 22:21 34.38784 -107.70113 37062 ft 565 kts 97°
2026-05-05 22:21 34.38876 -107.60590 37063 ft 566 kts 97°
2026-05-05 22:22 34.38967 -107.51044 37060 ft 563 kts 98°
2026-05-05 22:22 34.39044 -107.41579 37051 ft 565 kts 97°
2026-05-05 22:23 34.39111 -107.32049 37020 ft 566 kts 98°
2026-05-05 22:23 34.39180 -107.22562 37015 ft 564 kts 98°
2026-05-05 22:24 34.39233 -107.13115 37010 ft 568 kts 98°
2026-05-05 22:24 34.39283 -107.03556 37001 ft 569 kts 98°
2026-05-05 22:25 34.39326 -106.94001 36990 ft 570 kts 98°
2026-05-05 22:25 34.39353 -106.84424 36998 ft 571 kts 98°
2026-05-05 22:26 34.39382 -106.74899 36995 ft 570 kts 98°
2026-05-05 22:26 34.39309 -106.65357 37009 ft 567 kts 100°
2026-05-05 22:27 34.39083 -106.55846 37015 ft 569 kts 100°
2026-05-05 22:27 34.38849 -106.46330 37029 ft 569 kts 99°
2026-05-05 22:28 34.38623 -106.36798 37029 ft 567 kts 100°
2026-05-05 22:28 34.38383 -106.27238 37019 ft 567 kts 101°
2026-05-05 22:29 34.38129 -106.17777 37027 ft 568 kts 101°
2026-05-05 22:29 34.37872 -106.08234 37028 ft 571 kts 101°
2026-05-05 22:30 34.37612 -105.98652 37010 ft 569 kts 101°
2026-05-05 22:30 34.37330 -105.89078 37021 ft 570 kts 101°
2026-05-05 22:31 34.37055 -105.79554 37013 ft 570 kts 101°
2026-05-05 22:31 34.36768 -105.70005 37022 ft 564 kts 101°
2026-05-05 22:31 34.36359 -105.65382 37021 ft 548 kts 112°
2026-05-05 22:32 34.35605 -105.60889 37003 ft 552 kts 112°
2026-05-05 22:32 34.34130 -105.51802 37011 ft 554 kts 111°
2026-05-05 22:33 34.32672 -105.42686 37001 ft 551 kts 111°
2026-05-05 22:33 34.31200 -105.33637 37002 ft 550 kts 112°
2026-05-05 22:34 34.29745 -105.24681 36984 ft 544 kts 112°
2026-05-05 22:34 34.28267 -105.15620 36983 ft 548 kts 112°
2026-05-05 22:35 34.26787 -105.06634 36991 ft 549 kts 111°
2026-05-05 22:35 34.25308 -104.97672 36976 ft 543 kts 112°
2026-05-05 22:36 34.23827 -104.88772 36969 ft 548 kts 112°
2026-05-05 22:36 34.22322 -104.79716 36982 ft 553 kts 111°
2026-05-05 22:37 34.20808 -104.70665 36967 ft 547 kts 112°
2026-05-05 22:37 34.19302 -104.61687 36957 ft 546 kts 112°
2026-05-05 22:38 34.17787 -104.52765 36963 ft 548 kts 112°
2026-05-05 22:38 34.16257 -104.43750 36957 ft 551 kts 111°
2026-05-05 22:39 34.14715 -104.34714 36958 ft 556 kts 112°
2026-05-05 22:39 34.13150 -104.25583 36930 ft 555 kts 112°
2026-05-05 22:40 34.11603 -104.16578 36925 ft 549 kts 112°
2026-05-05 22:40 34.10046 -104.07609 36931 ft 554 kts 112°
2026-05-05 22:41 34.08463 -103.98518 36936 ft 559 kts 112°
2026-05-05 22:41 34.06876 -103.89372 36934 ft 556 kts 112°
2026-05-05 22:42 34.05284 -103.80302 36941 ft 554 kts 112°
2026-05-05 22:42 34.03679 -103.71214 36945 ft 558 kts 112°
2026-05-05 22:43 34.02073 -103.62125 36942 ft 554 kts 112°
2026-05-05 22:43 34.00468 -103.53108 36946 ft 554 kts 111°
2026-05-05 22:44 33.98848 -103.44054 36957 ft 558 kts 111°
2026-05-05 22:44 33.97217 -103.34915 36942 ft 556 kts 112°
2026-05-05 22:45 33.95586 -103.25909 36931 ft 555 kts 112°
2026-05-05 22:45 33.93936 -103.16785 36926 ft 557 kts 112°
2026-05-05 22:46 33.92291 -103.07719 36937 ft 556 kts 112°
2026-05-05 22:46 33.90649 -102.98737 36941 ft 553 kts 112°
2026-05-05 22:47 33.88979 -102.89629 36953 ft 557 kts 112°
2026-05-05 22:47 33.87310 -102.80600 36950 ft 557 kts 112°
2026-05-05 22:48 33.85638 -102.71536 36940 ft 556 kts 112°
2026-05-05 22:48 33.83952 -102.62459 36938 ft 557 kts 112°
2026-05-05 22:49 33.82261 -102.53391 36935 ft 558 kts 112°
2026-05-05 22:49 33.80553 -102.44283 36934 ft 559 kts 112°
2026-05-05 22:50 33.78843 -102.35239 36937 ft 561 kts 112°
2026-05-05 22:50 33.77125 -102.26121 36907 ft 560 kts 112°
2026-05-05 22:51 33.75396 -102.17030 36900 ft 559 kts 113°
2026-05-05 22:51 33.73664 -102.07947 36902 ft 561 kts 112°
2026-05-05 22:52 33.71921 -101.98836 36899 ft 559 kts 113°
2026-05-05 22:52 33.70245 -101.89706 36893 ft 570 kts 105°
2026-05-05 22:53 33.69562 -101.80135 36902 ft 573 kts 103°
2026-05-05 22:53 33.68779 -101.70621 36916 ft 571 kts 104°
2026-05-05 22:54 33.67971 -101.61041 36918 ft 575 kts 103°
2026-05-05 22:54 33.67167 -101.51459 36922 ft 574 kts 103°
2026-05-05 22:55 33.66354 -101.41891 36918 ft 574 kts 104°
2026-05-05 22:55 33.65525 -101.32321 36905 ft 573 kts 104°
2026-05-05 22:56 33.64689 -101.22700 36895 ft 574 kts 104°
2026-05-05 22:56 33.63858 -101.13200 36896 ft 576 kts 103°
2026-05-05 22:57 33.63008 -101.03645 36888 ft 578 kts 103°
2026-05-05 22:57 33.62160 -100.94045 36888 ft 573 kts 104°
2026-05-05 22:58 33.61298 -100.84563 36886 ft 574 kts 103°
2026-05-05 22:58 33.60429 -100.74966 36884 ft 577 kts 102°
2026-05-05 22:59 33.59552 -100.65449 36884 ft 576 kts 103°
2026-05-05 22:59 33.58676 -100.55987 36879 ft 573 kts 103°
2026-05-05 23:00 33.57350 -100.41773 36883 ft 573 kts 103°
2026-05-05 23:00 33.56461 -100.32317 36859 ft 573 kts 103°
2026-05-05 23:01 33.55565 -100.22813 36852 ft 572 kts 104°
2026-05-05 23:01 33.54654 -100.13382 36862 ft 571 kts 104°
2026-05-05 23:02 33.53751 -100.03991 36864 ft 571 kts 104°
2026-05-05 23:02 33.52820 -99.94514 36864 ft 574 kts 103°
2026-05-05 23:03 33.51889 -99.85046 36866 ft 571 kts 103°
2026-05-05 23:03 33.50951 -99.75580 36864 ft 573 kts 102°
2026-05-05 23:04 33.50014 -99.66156 36858 ft 572 kts 103°
2026-05-05 23:04 33.49061 -99.56705 36859 ft 571 kts 102°
2026-05-05 23:05 33.48112 -99.47295 36862 ft 573 kts 102°
2026-05-05 23:05 33.47150 -99.37862 36863 ft 569 kts 103°
2026-05-05 23:06 33.46186 -99.28516 36846 ft 569 kts 103°
2026-05-05 23:06 33.45208 -99.19136 36844 ft 570 kts 103°
2026-05-05 23:07 33.44228 -99.09730 36840 ft 569 kts 103°
2026-05-05 23:07 33.43236 -99.00310 36833 ft 568 kts 103°
2026-05-05 23:08 33.42238 -98.90892 36829 ft 571 kts 102°
2026-05-05 23:08 33.41235 -98.81497 36825 ft 568 kts 103°
2026-05-05 23:09 33.40207 -98.71961 36827 ft 569 kts 103°
2026-05-05 23:09 33.39171 -98.62424 36829 ft 570 kts 102°
2026-05-05 23:10 33.38135 -98.52911 36830 ft 569 kts 103°
2026-05-05 23:10 33.37084 -98.43338 36832 ft 570 kts 102°
2026-05-05 23:11 33.36032 -98.33849 36824 ft 569 kts 103°
2026-05-05 23:11 33.34980 -98.24422 36807 ft 569 kts 103°
2026-05-05 23:12 33.33914 -98.14971 36813 ft 571 kts 103°
2026-05-05 23:12 33.32850 -98.05544 36818 ft 571 kts 103°
2026-05-05 23:13 33.31788 -97.96197 36819 ft 570 kts 103°
2026-05-05 23:13 33.30696 -97.86710 36825 ft 571 kts 103°
2026-05-05 23:14 33.29606 -97.77249 36818 ft 572 kts 102°
2026-05-05 23:14 33.28505 -97.67731 36811 ft 569 kts 103°
2026-05-05 23:15 33.27398 -97.58349 36816 ft 572 kts 102°
2026-05-05 23:15 33.26272 -97.48764 36817 ft 571 kts 102°
2026-05-05 23:16 33.25155 -97.39334 36814 ft 571 kts 102°
2026-05-05 23:16 33.24029 -97.29920 36779 ft 571 kts 103°
2026-05-05 23:17 33.22901 -97.20514 36783 ft 569 kts 103°
2026-05-05 23:17 33.21740 -97.10943 36779 ft 572 kts 102°
2026-05-05 23:18 33.20569 -97.01348 36779 ft 573 kts 102°
2026-05-05 23:18 33.19404 -96.91782 36776 ft 572 kts 102°
2026-05-05 23:19 33.18206 -96.82129 36780 ft 571 kts 102°
2026-05-05 23:19 33.17010 -96.72489 36780 ft 572 kts 102°
2026-05-05 23:20 33.15816 -96.62915 36772 ft 569 kts 102°
2026-05-05 23:20 33.14612 -96.53314 36768 ft 570 kts 102°
2026-05-05 23:21 33.13397 -96.43741 36774 ft 569 kts 102°
2026-05-05 23:21 33.12196 -96.34309 36763 ft 570 kts 102°
2026-05-05 23:22 33.10986 -96.24856 36735 ft 569 kts 103°
2026-05-05 23:22 33.09784 -96.15552 36749 ft 568 kts 102°
2026-05-05 23:23 33.08575 -96.06238 36749 ft 567 kts 102°
2026-05-05 23:23 33.07366 -95.96979 36759 ft 567 kts 102°
2026-05-05 23:24 33.06148 -95.87690 36763 ft 566 kts 102°
2026-05-05 23:24 33.04918 -95.78395 36766 ft 568 kts 102°
2026-05-05 23:25 33.03685 -95.69080 36770 ft 566 kts 102°
2026-05-05 23:25 33.02433 -95.59755 36771 ft 568 kts 102°
2026-05-05 23:26 33.01195 -95.50522 36768 ft 566 kts 102°
2026-05-05 23:26 32.99946 -95.41264 36773 ft 568 kts 102°
2026-05-05 23:27 32.98679 -95.31969 36744 ft 567 kts 102°
2026-05-05 23:27 32.97420 -95.22749 36752 ft 566 kts 102°
2026-05-05 23:28 32.96146 -95.13506 36753 ft 566 kts 102°
2026-05-05 23:28 32.94870 -95.04265 36760 ft 567 kts 103°
2026-05-05 23:29 32.93583 -94.95042 36764 ft 566 kts 102°
2026-05-05 23:29 32.92304 -94.85880 36783 ft 566 kts 102°
2026-05-05 23:30 32.91003 -94.76636 36783 ft 568 kts 102°
2026-05-05 23:30 32.89695 -94.67397 36787 ft 565 kts 102°
2026-05-05 23:31 32.88389 -94.58154 36792 ft 566 kts 102°
2026-05-05 23:31 32.87067 -94.48972 36784 ft 567 kts 101°
2026-05-05 23:32 32.85748 -94.39758 36788 ft 566 kts 101°
2026-05-05 23:32 32.84422 -94.30599 36762 ft 565 kts 102°
2026-05-05 23:33 32.83082 -94.21386 36768 ft 565 kts 102°
2026-05-05 23:33 32.81745 -94.12210 36769 ft 565 kts 102°
2026-05-05 23:34 32.80402 -94.03072 36777 ft 565 kts 102°
2026-05-05 23:34 32.79047 -93.93896 36770 ft 565 kts 102°
2026-05-05 23:35 32.77699 -93.84770 36778 ft 564 kts 102°
2026-05-05 23:35 32.75986 -93.75685 36788 ft 564 kts 103°
2026-05-05 23:36 32.74338 -93.66595 36774 ft 563 kts 104°
2026-05-05 23:36 32.72592 -93.57552 36779 ft 563 kts 105°
2026-05-05 23:37 32.70835 -93.48549 36784 ft 563 kts 105°
2026-05-05 23:37 32.69064 -93.39501 36784 ft 562 kts 105°
2026-05-05 23:38 32.67292 -93.30476 36771 ft 562 kts 105°
2026-05-05 23:38 32.65504 -93.21421 36776 ft 561 kts 105°
2026-05-05 23:39 32.63720 -93.12444 36786 ft 561 kts 105°
2026-05-05 23:39 32.61928 -93.03416 36787 ft 560 kts 105°
2026-05-05 23:40 32.60132 -92.94445 36792 ft 561 kts 105°
2026-05-05 23:40 32.58320 -92.85407 36799 ft 562 kts 104°
2026-05-05 23:41 32.56514 -92.76440 36802 ft 560 kts 105°
2026-05-05 23:41 32.54706 -92.67509 36813 ft 561 kts 105°
2026-05-05 23:42 32.52882 -92.58532 36821 ft 560 kts 105°
2026-05-05 23:42 32.51055 -92.49577 36820 ft 561 kts 104°
2026-05-05 23:43 32.49227 -92.40635 36822 ft 561 kts 104°
2026-05-05 23:43 32.47389 -92.31665 36803 ft 560 kts 105°
2026-05-05 23:44 32.45552 -92.22750 36804 ft 559 kts 105°
2026-05-05 23:44 32.43697 -92.13839 36812 ft 560 kts 105°
2026-05-05 23:45 32.41860 -92.04974 36818 ft 558 kts 104°
2026-05-05 23:45 32.40003 -91.96079 36818 ft 559 kts 104°
2026-05-05 23:46 32.38132 -91.87123 36830 ft 560 kts 104°
2026-05-05 23:46 32.36272 -91.78291 36827 ft 559 kts 104°
2026-05-05 23:47 32.34399 -91.69404 36837 ft 558 kts 104°
2026-05-05 23:47 32.32506 -91.60468 36838 ft 559 kts 104°
2026-05-05 23:48 32.30630 -91.51617 36832 ft 559 kts 104°
2026-05-05 23:48 32.28727 -91.42712 36851 ft 559 kts 104°
2026-05-05 23:49 32.26833 -91.33856 36848 ft 559 kts 104°
2026-05-05 23:49 32.24930 -91.25011 36837 ft 558 kts 105°
2026-05-05 23:50 32.23012 -91.16094 36843 ft 558 kts 105°
2026-05-05 23:50 32.21079 -91.07187 36852 ft 558 kts 104°
2026-05-05 23:51 32.19151 -90.98328 36859 ft 558 kts 104°
2026-05-05 23:51 32.17223 -90.89450 36860 ft 557 kts 105°
2026-05-05 23:52 32.15289 -90.80630 36860 ft 558 kts 105°
2026-05-05 23:52 32.13347 -90.71779 36862 ft 555 kts 104°
2026-05-05 23:53 32.11401 -90.62952 36873 ft 557 kts 104°
2026-05-05 23:53 32.09442 -90.54089 36879 ft 556 kts 104°
2026-05-05 23:54 32.07486 -90.45306 36888 ft 555 kts 104°
2026-05-05 23:54 32.05530 -90.36517 36877 ft 557 kts 104°
2026-05-05 23:55 32.03563 -90.27706 36867 ft 555 kts 104°
2026-05-05 23:55 32.01587 -90.18906 36868 ft 556 kts 105°
2026-05-05 23:56 31.99611 -90.10117 36875 ft 556 kts 105°
2026-05-05 23:56 31.97610 -90.01276 36879 ft 556 kts 104°
2026-05-05 23:57 31.95625 -89.92487 36885 ft 556 kts 105°
2026-05-05 23:57 31.93621 -89.83685 36891 ft 554 kts 105°
2026-05-05 23:58 31.91621 -89.74941 36899 ft 555 kts 105°
2026-05-05 23:58 31.89600 -89.66128 36907 ft 555 kts 104°
2026-05-05 23:59 31.87592 -89.57355 36907 ft 554 kts 105°
2026-05-05 23:59 31.85580 -89.48638 36926 ft 554 kts 104°
2026-05-06 00:00 31.83555 -89.39906 36929 ft 553 kts 104°
2026-05-06 00:00 31.81528 -89.31164 36909 ft 552 kts 105°
2026-05-06 00:01 31.79498 -89.22452 36916 ft 553 kts 105°
2026-05-06 00:01 31.77460 -89.13754 36924 ft 553 kts 105°
2026-05-06 00:02 31.75429 -89.05087 36925 ft 553 kts 105°
2026-05-06 00:02 31.73383 -88.96378 36922 ft 551 kts 105°
2026-05-06 00:03 31.71333 -88.87721 36932 ft 552 kts 105°
2026-05-06 00:03 31.69280 -88.79054 36940 ft 552 kts 105°
2026-05-06 00:04 31.67218 -88.70354 36950 ft 552 kts 105°
2026-05-06 00:04 31.65142 -88.61674 36950 ft 552 kts 105°
2026-05-06 00:05 31.62021 -88.48624 36955 ft 552 kts 105°
2026-05-06 00:06 31.59947 -88.40015 36952 ft 552 kts 104°
2026-05-06 00:06 31.57858 -88.31331 36932 ft 552 kts 105°
2026-05-06 00:07 31.55756 -88.22651 36937 ft 553 kts 105°
2026-05-06 00:07 31.53638 -88.13930 36935 ft 553 kts 105°
2026-05-06 00:08 31.51541 -88.05312 36943 ft 551 kts 105°
2026-05-06 00:08 31.49422 -87.96645 36947 ft 551 kts 105°
2026-05-06 00:09 31.47302 -87.88009 36954 ft 553 kts 105°
2026-05-06 00:09 31.45167 -87.79325 36963 ft 551 kts 104°
2026-05-06 00:10 31.43053 -87.70726 36961 ft 553 kts 105°
2026-05-06 00:10 31.40904 -87.62058 36966 ft 553 kts 105°
2026-05-06 00:11 31.38759 -87.53429 36971 ft 552 kts 104°
2026-05-06 00:11 31.36608 -87.44795 36974 ft 553 kts 105°
2026-05-06 00:12 31.34444 -87.36139 36987 ft 552 kts 105°
2026-05-06 00:12 31.32275 -87.27477 36974 ft 551 kts 105°
2026-05-06 00:13 31.30109 -87.18860 36979 ft 552 kts 106°
2026-05-06 00:13 31.27937 -87.10252 36981 ft 553 kts 105°
2026-05-06 00:14 31.25765 -87.01668 36987 ft 551 kts 106°
2026-05-06 00:14 31.23588 -86.93066 36988 ft 552 kts 105°
2026-05-06 00:15 31.21394 -86.84457 36990 ft 552 kts 105°
2026-05-06 00:15 31.19199 -86.75864 36997 ft 550 kts 105°
2026-05-06 00:16 31.17011 -86.67305 37000 ft 551 kts 105°
2026-05-06 00:16 31.14657 -86.58158 37005 ft 551 kts 105°
2026-05-06 00:17 31.12246 -86.48815 37013 ft 551 kts 105°
2026-05-06 00:17 31.09936 -86.39883 37012 ft 551 kts 104°
2026-05-06 00:18 31.07715 -86.31295 36999 ft 552 kts 105°
2026-05-06 00:18 31.05473 -86.22684 37011 ft 551 kts 105°
2026-05-06 00:19 31.03227 -86.14088 37008 ft 552 kts 105°
2026-05-06 00:19 31.00989 -86.05526 37011 ft 552 kts 105°
2026-05-06 00:20 30.98743 -85.96975 37015 ft 551 kts 105°
2026-05-06 00:20 30.96485 -85.88412 37021 ft 551 kts 104°
2026-05-06 00:21 30.94237 -85.79888 37015 ft 553 kts 105°
2026-05-06 00:21 30.91968 -85.71329 37017 ft 551 kts 105°
2026-05-06 00:22 30.89710 -85.62824 37016 ft 551 kts 104°
2026-05-06 00:22 30.87433 -85.54260 37009 ft 552 kts 105°
2026-05-06 00:23 30.85118 -85.45621 37013 ft 551 kts 104°
2026-05-06 00:23 30.82808 -85.36999 37018 ft 551 kts 104°
2026-05-06 00:24 30.80498 -85.28400 37006 ft 552 kts 105°
2026-05-06 00:24 30.78183 -85.19811 37006 ft 551 kts 105°
2026-05-06 00:25 30.75876 -85.11284 37011 ft 551 kts 105°
2026-05-06 00:25 30.73570 -85.02773 37012 ft 551 kts 105°
2026-05-06 00:26 30.71238 -84.94189 37014 ft 552 kts 105°
2026-05-06 00:26 30.68863 -84.85499 37019 ft 550 kts 105°
2026-05-06 00:27 30.66514 -84.76911 37023 ft 552 kts 105°
2026-05-06 00:27 30.64180 -84.68387 37028 ft 552 kts 105°
2026-05-06 00:28 30.61823 -84.59851 37024 ft 552 kts 104°
2026-05-06 00:28 30.59479 -84.51342 37030 ft 552 kts 104°
2026-05-06 00:29 30.57121 -84.42821 37034 ft 551 kts 104°
2026-05-06 00:29 30.54406 -84.34424 37051 ft 551 kts 112°
2026-05-06 00:30 30.51150 -84.26247 37028 ft 554 kts 113°
2026-05-06 00:30 30.47829 -84.17963 37026 ft 554 kts 113°
2026-05-06 00:31 30.44487 -84.09653 37026 ft 553 kts 113°
2026-05-06 00:31 30.41137 -84.01355 37027 ft 555 kts 113°
2026-05-06 00:32 30.37754 -83.92992 37028 ft 553 kts 113°
2026-05-06 00:32 30.34393 -83.84695 37029 ft 554 kts 113°
2026-05-06 00:33 30.31004 -83.76350 37030 ft 553 kts 113°